User: anonymous   Login
Location: Unspecified
(0.0000°N, 0.0000°E)
Time: 09:31:16
(UTC+00:00)
Language:

Kosmos-2100 - Orbit

View from above orbital plane
View from above orbital plane
View from above satellite
View from above satellite

Ground track
Ground track

The orbit data is extracted from the following two-line orbital elements,

1 20804U 90083A   18023.82505154  .00000026  00000-0  11227-4 0  9993
2 20804  82.9398 278.0138 0036693 181.0126 248.2345 13.74310596372290
Epoch (UTC): 23 January 2018 19:48:04
Eccentricity: 0.0036693
inclination: 82.9398°
perigee height: 957 km
apogee height: 1011 km
right ascension of ascending node: 278.0138°
argument of perigee: 181.0126°
revolutions per day: 13.74310596
mean anomaly at epoch: 248.2345°
orbit number at epoch: 37229

The dashed part of the orbit path shows where the satellite is in the earth's shadow,  

DLR